TimeCST,TemperatureF,Dew PointF,Humidity,Sea Level PressureIn,VisibilityMPH,Wind Direction,Wind SpeedMPH,Gust SpeedMPH,PrecipitationIn,Events,Conditions,WindDirDegrees,DateUTC
12:35 AM,32.0,24.4,74,30.04,10.0,SW,4.6,-,N/A,,Clear,220,2013-01-08 06:35:00
12:55 AM,31.3,24.6,76,30.04,10.0,Calm,Calm,-,N/A,,Clear,0,2013-01-08 06:55:00
1:15 AM,31.5,24.3,75,30.04,10.0,SSW,3.5,-,N/A,,Clear,210,2013-01-08 07:15:00
1:35 AM,30.2,23.9,77,30.04,10.0,Calm,Calm,-,N/A,,Clear,0,2013-01-08 07:35:00
1:55 AM,30.9,24.1,76,30.04,10.0,Calm,Calm,-,N/A,,Clear,0,2013-01-08 07:55:00
2:15 AM,29.3,23.4,78,30.04,10.0,Calm,Calm,-,N/A,,Clear,0,2013-01-08 08:15:00
2:35 AM,29.1,23.7,80,30.04,10.0,South,3.5,-,N/A,,Clear,170,2013-01-08 08:35:00
2:55 AM,27.9,23.4,83,30.04,10.0,SSE,3.5,-,N/A,,Clear,150,2013-01-08 08:55:00
3:15 AM,27.0,22.8,84,30.04,10.0,South,4.6,-,N/A,,Clear,170,2013-01-08 09:15:00
3:35 AM,28.0,23.7,84,30.04,10.0,South,3.5,-,N/A,,Clear,190,2013-01-08 09:35:00
3:55 AM,25.7,21.6,84,30.04,10.0,South,3.5,-,N/A,,Clear,190,2013-01-08 09:55:00
4:15 AM,25.3,23.4,92,30.04,10.0,Calm,Calm,-,N/A,,Clear,0,2013-01-08 10:15:00
4:35 AM,26.4,23.2,88,30.04,10.0,Calm,Calm,-,N/A,,Clear,0,2013-01-08 10:35:00
4:55 AM,19.4,16.2,87,30.04,5.0,Calm,Calm,-,N/A,,Clear,0,2013-01-08 10:55:00
5:15 AM,19.4,17.4,92,30.04,5.0,Calm,Calm,-,N/A,,Clear,0,2013-01-08 11:15:00
5:35 AM,17.8,15.4,91,30.05,5.0,Calm,Calm,-,N/A,,Clear,0,2013-01-08 11:35:00
6:15 AM,15.6,13.6,92,30.05,3.0,Calm,Calm,-,N/A,,Clear,0,2013-01-08 12:15:00
6:35 AM,16.3,14.0,90,30.05,2.5,Calm,Calm,-,N/A,,Clear,0,2013-01-08 12:35:00
6:55 AM,14.2,12.0,91,30.06,4.0,Calm,Calm,-,N/A,,Clear,0,2013-01-08 12:55:00
7:15 AM,14.7,12.6,91,30.06,3.0,SE,3.5,-,N/A,,Clear,140,2013-01-08 13:15:00
7:35 AM,15.8,13.8,92,30.07,2.5,Calm,Calm,-,N/A,,Clear,0,2013-01-08 13:35:00
7:55 AM,16.3,14.0,90,30.07,2.5,Calm,Calm,-,N/A,,Clear,0,2013-01-08 13:55:00
8:15 AM,17.2,15.4,93,30.07,1.8,Calm,Calm,-,N/A,,Unknown,0,2013-01-08 14:15:00
8:35 AM,18.3,16.5,93,30.07,1.0,South,5.8,-,N/A,,Unknown,180,2013-01-08 14:35:00
8:55 AM,26.1,25.2,96,30.07,4.0,Calm,Calm,-,N/A,,Clear,0,2013-01-08 14:55:00
9:15 AM,26.4,25.5,96,30.07,4.0,South,4.6,-,N/A,,Clear,190,2013-01-08 15:15:00
9:35 AM,27.0,26.1,96,30.07,5.0,Calm,Calm,-,N/A,,Clear,0,2013-01-08 15:35:00
9:55 AM,28.8,27.9,96,30.07,5.0,South,4.6,-,N/A,,Clear,190,2013-01-08 15:55:00
10:15 AM,30.6,29.7,96,30.06,7.0,SSW,6.9,-,N/A,,Clear,200,2013-01-08 16:15:00
10:35 AM,32.7,25.9,76,30.06,7.0,SSW,6.9,-,N/A,,Clear,200,2013-01-08 16:35:00
10:55 AM,34.2,25.5,71,30.05,7.0,SSW,5.8,-,N/A,,Clear,210,2013-01-08 16:55:00
11:15 AM,35.1,25.7,69,30.04,7.0,SW,8.1,-,N/A,,Clear,220,2013-01-08 17:15:00
11:35 AM,35.6,25.5,67,30.04,7.0,SW,5.8,-,N/A,,Clear,230,2013-01-08 17:35:00
11:55 AM,36.0,25.5,66,30.03,10.0,SSW,6.9,-,N/A,,Clear,210,2013-01-08 17:55:00
12:35 PM,36.9,26.2,65,30.02,10.0,South,5.8,-,N/A,,Clear,170,2013-01-08 18:35:00
12:55 PM,36.5,26.1,66,30.01,10.0,South,5.8,-,N/A,,Clear,180,2013-01-08 18:55:00
1:15 PM,37.2,26.4,65,30.00,10.0,SSW,11.5,-,N/A,,Clear,200,2013-01-08 19:15:00
1:55 PM,37.2,27.1,67,29.99,10.0,South,12.7,-,N/A,,Clear,170,2013-01-08 19:55:00
2:15 PM,38.3,27.5,65,29.99,10.0,South,11.5,-,N/A,,Clear,180,2013-01-08 20:15:00
2:35 PM,38.7,28.2,66,29.99,10.0,South,12.7,18.4,N/A,,Clear,190,2013-01-08 20:35:00
2:55 PM,37.8,28.4,69,30.00,10.0,South,12.7,-,N/A,,Clear,180,2013-01-08 20:55:00
3:15 PM,37.9,28.9,70,29.99,10.0,South,11.5,-,N/A,,Clear,170,2013-01-08 21:15:00
3:35 PM,37.4,28.9,71,29.98,10.0,SSE,11.5,-,N/A,,Clear,160,2013-01-08 21:35:00
3:55 PM,37.6,29.3,72,29.97,10.0,SSE,9.2,-,N/A,,Clear,160,2013-01-08 21:55:00
4:15 PM,37.9,29.3,71,29.97,10.0,SSE,8.1,-,N/A,,Clear,160,2013-01-08 22:15:00
4:35 PM,37.2,29.1,73,29.96,10.0,SSE,11.5,16.1,N/A,,Clear,160,2013-01-08 22:35:00
4:55 PM,37.2,29.3,73,29.95,10.0,SSE,9.2,-,N/A,,Clear,160,2013-01-08 22:55:00
5:15 PM,37.4,29.8,74,29.94,10.0,SSE,10.4,-,N/A,,Clear,150,2013-01-08 23:15:00
5:35 PM,37.2,29.8,75,29.94,10.0,SSE,8.1,-,N/A,,Clear,160,2013-01-08 23:35:00
5:55 PM,37.8,30.0,74,29.94,10.0,South,9.2,-,N/A,,Clear,170,2013-01-08 23:55:00
6:15 PM,38.3,30.2,73,29.93,10.0,South,10.4,-,N/A,,Clear,170,2013-01-09 00:15:00
6:35 PM,38.1,30.2,73,29.93,10.0,South,10.4,16.1,N/A,,Clear,180,2013-01-09 00:35:00
6:55 PM,37.9,30.0,73,29.93,10.0,South,13.8,-,N/A,,Clear,180,2013-01-09 00:55:00
7:55 PM,37.6,29.5,73,29.95,10.0,SSW,16.1,-,N/A,,Mostly Cloudy,200,2013-01-09 01:55:00
8:15 PM,37.8,29.5,72,29.94,10.0,SSW,15.0,19.6,N/A,,Mostly Cloudy,200,2013-01-09 02:15:00
8:35 PM,38.3,29.3,70,29.94,10.0,SSW,12.7,-,N/A,,Scattered Clouds,210,2013-01-09 02:35:00
8:55 PM,39.2,29.3,68,29.92,10.0,SSW,15.0,-,N/A,,Clear,200,2013-01-09 02:55:00
9:15 PM,39.6,29.5,67,29.93,10.0,SSW,15.0,21.9,N/A,,Scattered Clouds,210,2013-01-09 03:15:00
9:35 PM,39.7,29.8,68,29.93,10.0,SSW,12.7,20.7,N/A,,Overcast,210,2013-01-09 03:35:00
9:55 PM,39.6,29.8,68,29.93,10.0,SSW,11.5,19.6,N/A,,Overcast,210,2013-01-09 03:55:00
10:15 PM,39.2,30.0,70,29.92,10.0,SSW,11.5,-,N/A,,Overcast,210,2013-01-09 04:15:00
10:35 PM,39.2,30.0,70,29.92,10.0,SSW,12.7,18.4,N/A,,Mostly Cloudy,210,2013-01-09 04:35:00
10:55 PM,39.2,30.0,70,29.92,10.0,SW,17.3,23.0,N/A,,Scattered Clouds,220,2013-01-09 04:55:00
11:15 PM,39.4,29.8,69,29.91,10.0,SW,12.7,21.9,N/A,,Scattered Clouds,220,2013-01-09 05:15:00
11:35 PM,39.4,29.8,69,29.91,10.0,SW,13.8,-,N/A,,Clear,220,2013-01-09 05:35:00
11:55 PM,39.2,29.8,69,29.91,10.0,SW,12.7,18.4,N/A,,Clear,220,2013-01-09 05:55:00